Terminal Aerodrome Forecast
Issued by NWS Wichita, KS

Home | Current Version | Previous Version | Graphics & Text | Print | Product List | Glossary On
Versions: 1 2 3 4 5 6 7 8 9 10 11 12 13 14
000
FTUS43 KICT 291725
TAFICT
TAF
KICT 291725Z 2918/3018 35017G25KT P6SM OVC035
     FM292100 35017KT P6SM SCT040
     FM300000 35007KT P6SM BKN250
     FM300600 09008KT P6SM BKN250=

USA.gov is the U.S. government's official web portal to all federal, state and local government web resources and services.